Temperature
15 15 15 14 14 14 14 14 14 14 14 14 14 14 14 13 13 14 13 13 13 13 13 13 13 13 13 13 13 13 14 14 14 13 13 13 13 13 13 12 12 12 12
15 15 14 14 14 14 14 14 14 14 14 14 14 13 13 13 13 13 13 13 13 13 13 13 13 13 13 13 13 13 13 13 13 13 13 13 13 12 12 12 12 12 12
15 14 14 14 14 14 14 14 13 13 13 13 13 13 13 13 13 13 13 13 13 13 13 13 13 13 13 13 13 13 13 13 13 13 13 12 12 12 12 12 12 12 12
14 14 14 14 14 14 13 13 13 13 13 13 13 13 13 13 13 13 13 13 13 13 13 13 12 12 12 13 13 13 12 12 12 12 12 12 12 12 12 12 12 12 12
14 14 14 14 13 13 13 13 13 13 13 13 13 13 13 13 13 13 13 12 12 12 12 12 12 12 12 12 12 12 12 12 12 12 12 12 12 11 12 11 11 11 11
13 13 13 13 13 13 13 13 13 13 13 13 13 13 13 13 13 13 12 12 12 12 12 12 12 12 12 12 12 12 12 12 12 12 12 12 11 11 11 11 11 11 11
13 13 13 13 13 13 12 12 12 12 12 12 12 12 12 12 12 12 12 12 12 12 11 11 11 12 12 12 12 12 12 11 12 11 11 11 11 11 11 11 11 11 11
12 12 12 12 12 12 12 12 12 12 12 12 12 12 12 12 12 12 12 12 11 11 11 11 11 11 11 11 11 11 11 11 11 11 11 11 11 11 11 11 11 10 10
12 12 12 12 12 11 11 11 11 11 11 11 11 11 11 11 11 11 11 11 11 11 11 11 11 11 11 11 11 11 11 11 11 11 11 11 11 11 10 10 10 10 10
12 11 11 11 11 11 11 11 11 11 10 11 11 10 10 10 11 11 11 11 10 10 10 10 10 10 10 10 10 10 10 10 10 10 10 10 10 10 10 10 10 10 10
11 11 11 11 11 10 10 10 10 10 10 10 10 10 10 10 10 10 10 10 10 10 10 10 10 10 10 10 10 10 10 10 10 10 10 10 10 10 10 10 10 9 9
11 11 10 10 10 10 10 10 10 9 9 9 9 9 9 9 9 10 10 10 9 9 9 9 9 9 9 9 9 9 9 9 9 9 9 9 9 9 9 9 9 9 9
10 10 10 10 10 10 9 9 9 9 9 9 9 9 9 9 9 9 9 9 9 9 9 9 9 9 9 9 9 9 9 9 9 9 8 9 9 9 9 9 9 8 8
10 10 10 10 9 9 9 9 9 9 9 8 8 8 8 8 8 9 9 9 9 8 8 8 8 8 8 8 8 8 8 8 8 8 8 8 8 8 8 8 8 8 8
9 9 9 9 9 9 9 9 9 9 8 8 8 8 8 8 8 8 8 8 8 8 8 8 8 8 8 8 7 8 8 7 7 7 7 7 7 7 7 7 7 7 7
9 9 9 8 8 8 8 8 8 8 8 8 8 8 8 8 8 8 8 8 8 8 7 7 7 7 7 7 7 7 7 7 7 7 7 7 6 6 6 6 6 6 6
8 8 8 8 8 8 8 8 8 8 8 7 7 7 7 7 7 7 7 7 7 7 7 7 6 6 6 6 6 6 6 6 6 6 6 6 6 6 6 6 5 5 5
8 8 8 8 8 8 8 7 7 7 7 7 7 7 7 7 7 7 7 6 6 6 6 6 6 6 6 6 6 6 6 6 5 5 5 5 5 5 5 5 5 5 5
8 7 7 7 7 7 7 7 7 7 7 7 7 7 6 6 6 6 6 6 6 6 6 5 5 5 5 5 5 5 5 5 5 5 5 5 5 5 5 4 4 4 4
7 7 7 7 7 7 7 7 6 6 6 6 6 6 6 6 6 6 5 5 5 5 5 5 5 5 5 5 5 5 5 5 5 5 5 4 4 4 4 4 4 4 4
7 7 7 7 7 6 6 6 6 6 6 6 6 6 6 5 5 5 5 5 5 5 5 5 5 5 5 5 4 4 4 4 4 4 4 4 4 4 4 4 4 3 3
6 6 6 6 6 6 6 6 6 6 5 5 5 5 5 5 5 5 5 5 4 4 4 4 4 4 4 4 4 4 4 4 4 4 4 4 4 4 4 3 3 3 3
6 6 6 5 5 5 5 5 5 5 5 5 5 5 4 4 4 4 4 4 4 4 4 4 4 4 4 4 4 4 4 4 4 4 3 3 3 3 3 3 3 3 3
5 5 5 5 5 5 5 5 4 4 4 4 4 4 4 4 4 4 4 4 4 4 4 4 4 4 4 4 4 4 3 3 3 3 3 3 3 3 3 3 3 3 2
5 4 4 4 4 4 4 4 4 4 4 4 4 4 4 4 3 3 3 3 3 3 3 3 3 3 3 3 3 3 3 3 3 3 2 2 2 2 2 2 2 2 2
4 4 4 3 3 3 3 4 3 3 3 3 3 3 3 3 3 3 3 3 3 3 3 3 3 3 3 3 3 3 3 2 2 2 2 2 2 2 2 2 2 2 2
Wind_Speed
4 3 3 2 3 3 2 1 1 0 0 1 1 1 1 1 1 1 1 1 1 1 1 1 1 1 1 1 1 1 0 2 3 1 1 2 2 3 4 5 7 7 5
3 3 3 3 3 3 2 2 1 1 1 2 2 2 1 1 1 1 2 2 1 1 1 1 1 1 1 1 1 1 1 1 3 2 1 1 2 2 3 3 4 5 6
2 2 2 2 2 2 2 2 1 1 2 1 2 2 2 1 1 1 1 2 1 1 0 1 1 1 1 1 1 1 1 1 2 3 2 1 1 2 2 1 2 2 4
2 2 2 2 1 1 1 1 1 1 1 2 2 2 2 2 1 1 1 1 1 1 1 0 0 1 1 1 1 1 1 1 2 2 2 1 1 1 2 1 0 1 1
1 2 2 1 1 1 1 1 0 1 1 1 0 0 1 1 0 0 1 1 1 1 0 1 1 2 2 1 1 1 1 1 1 2 2 1 1 1 1 1 1 1 1
2 2 1 2 1 1 1 0 0 1 1 1 1 1 1 1 3 3 2 1 0 0 0 0 1 2 2 2 2 3 2 2 2 2 2 2 2 2 1 2 1 1 1
2 2 2 2 2 2 1 0 1 1 1 1 1 1 1 2 3 3 3 1 1 1 0 0 1 1 2 1 1 2 2 1 1 3 2 3 2 2 2 2 2 2 3
1 2 2 2 2 2 1 1 1 0 0 0 1 1 2 1 2 2 2 1 0 0 0 0 1 1 1 2 1 1 1 1 1 1 2 2 2 2 3 3 3 2 1
1 2 2 2 2 2 2 1 1 1 1 1 1 1 2 1 2 2 1 1 0 0 0 1 1 1 2 3 2 1 1 0 1 2 2 3 2 2 2 1 1 2 2
1 1 2 2 2 2 2 2 1 1 1 1 2 1 2 2 2 2 1 1 1 1 0 0 2 2 2 2 1 1 1 1 1 0 0 0 1 2 2 2 2 3 2
1 1 2 2 2 2 1 1 1 1 1 1 2 2 2 2 3 3 2 1 1 1 1 1 1 1 1 0 1 1 1 1 2 2 1 1 0 1 1 1 2 2 2
1 1 1 2 2 1 1 1 1 1 1 2 2 2 1 1 2 2 3 2 1 1 1 1 1 1 1 1 0 1 1 1 0 0 1 1 1 1 1 2 2 2 2
1 1 2 2 1 1 1 1 1 1 1 2 1 2 2 1 1 1 2 2 2 1 1 1 1 2 1 1 1 1 0 0 0 1 2 2 2 1 1 1 1 1 0
1 1 1 1 1 1 1 1 1 2 2 2 2 2 2 1 1 1 1 2 2 1 1 1 2 2 1 1 0 1 1 1 1 1 1 2 1 1 1 1 1 0 1
1 1 1 1 1 0 0 1 2 2 2 3 3 2 2 2 2 1 2 2 2 2 1 1 1 1 1 1 1 1 1 1 1 1 1 1 1 1 1 1 1 1 1
1 1 1 1 1 1 1 1 1 2 2 3 2 2 2 2 1 1 2 2 2 2 1 1 2 2 2 2 2 2 2 2 2 1 1 2 1 2 2 1 1 2 2
1 1 1 1 1 1 2 2 1 1 1 2 2 2 2 1 1 1 1 1 1 3 2 2 2 3 2 2 2 2 2 2 2 2 2 2 2 2 2 2 2 2 2
1 1 1 1 2 2 2 2 2 2 1 1 2 3 3 2 2 2 2 1 1 2 2 3 3 3 2 2 2 2 2 1 1 2 2 2 2 2 2 2 3 3 3
2 2 1 1 2 2 2 2 2 2 2 2 1 1 2 2 1 2 2 2 2 3 3 2 2 2 2 3 3 3 3 2 2 2 2 2 2 2 2 2 3 4 4
1 2 2 2 2 2 2 1 2 2 2 2 2 2 1 1 1 2 3 3 3 3 3 3 2 2 2 2 2 2 2 2 3 3 3 3 3 2 3 4 3 3 4
1 2 3 2 2 2 1 2 2 2 2 2 2 2 2 2 3 3 4 4 4 4 3 3 3 3 3 2 2 3 3 3 3 3 3 3 3 3 3 3 4 4 4
1 1 1 2 2 2 2 2 2 2 3 3 2 2 3 3 3 3 3 4 4 3 3 3 3 3 4 3 4 3 3 3 3 3 3 3 3 3 3 4 4 4 4
2 2 2 2 1 2 2 2 2 2 3 3 2 2 2 3 3 3 3 3 3 3 3 3 4 4 3 3 4 4 5 5 4 4 4 4 4 4 4 5 5 5 5
2 2 2 2 2 2 2 2 2 3 3 3 2 2 3 3 3 3 3 3 3 3 3 3 4 5 5 4 5 5 6 6 5 4 5 5 5 4 4 5 6 6 6
2 2 2 2 2 2 2 3 3 3 3 3 3 3 2 3 3 3 3 3 4 4 4 4 4 4 5 6 6 6 7 8 7 6 5 4 5 6 5 6 6 6 6
3 3 2 2 2 2 3 3 3 3 3 3 3 3 3 3 3 3 3 3 3 4 4 4 5 5 6 7 7 8 9 9 9 8 6 4 5 6 6 6 7 7 7
Wind_Direction
185 188 193 184 175 172 170 188 181 165 179 176 213 189 169 203 190 150 218 263 286 266 234 191 154 113 113 99 81 79 79 120 140 167 140 139 123 121 126 146 147 148 149
189 187 188 175 177 175 174 180 200 210 235 210 192 201 179 193 197 176 224 255 265 289 276 224 187 160 152 148 172 175 171 139 143 151 156 146 146 151 150 163 160 156 149
180 174 171 184 183 178 174 179 209 220 224 234 205 189 174 176 192 196 215 249 237 264 300 283 230 158 155 167 179 181 178 134 132 149 176 171 167 172 157 180 170 151 158
154 163 178 189 177 168 174 164 202 255 235 247 228 179 170 167 188 194 206 231 238 246 244 287 359 127 182 180 186 177 147 131 138 144 166 179 189 202 151 159 226 225 189
149 165 182 170 138 123 111 111 270 301 285 295 317 144 129 135 171 186 223 235 229 238 303 71 71 72 55 104 112 134 132 145 151 161 177 174 191 176 199 203 209 221 247
150 144 143 141 134 130 125 120 16 327 314 338 326 91 75 48 36 33 41 325 66 103 182 111 116 88 65 86 91 115 127 150 178 179 195 191 201 187 189 195 200 190 265
152 150 140 140 137 127 127 76 286 261 306 286 291 154 118 84 69 46 25 29 54 44 88 44 347 46 71 76 116 118 114 105 142 176 193 209 199 198 188 206 211 204 228
134 139 146 149 152 150 147 169 284 295 297 299 296 186 146 102 97 68 21 335 206 60 63 100 102 89 39 31 165 141 143 192 232 181 175 205 212 207 198 205 207 212 234
171 153 145 150 149 149 167 200 236 233 250 267 269 213 152 125 109 87 68 275 237 248 39 42 82 115 44 40 60 140 153 234 37 134 163 186 187 192 187 166 183 179 230
189 165 155 159 160 170 198 218 221 219 245 249 257 223 178 163 149 139 150 214 210 191 185 82 50 53 71 58 63 93 177 220 202 292 340 219 199 190 176 183 188 191 211
159 159 166 180 185 192 216 244 219 212 243 244 242 235 204 169 174 178 177 188 209 197 203 206 159 116 117 22 107 119 244 244 204 193 195 227 281 233 223 214 186 182 196
133 163 181 184 198 176 177 246 245 217 237 241 239 237 237 189 167 198 204 224 284 208 221 212 193 172 199 230 159 318 324 13 94 155 212 229 249 259 246 224 217 210 216
184 213 213 205 199 176 183 214 235 224 231 240 230 234 251 248 208 209 217 244 291 301 268 221 169 155 161 169 278 330 344 111 199 236 235 243 241 240 272 271 258 252 305
212 221 226 208 208 201 192 206 216 218 221 226 230 235 240 225 223 213 211 236 271 302 357 53 95 124 116 129 16 281 258 232 200 225 248 243 231 221 223 218 222 197 66
230 229 236 199 209 227 213 243 224 230 210 213 221 218 225 236 253 241 183 197 203 211 129 85 90 126 157 203 227 228 241 256 262 265 258 276 246 222 234 224 205 184 199
256 276 271 237 223 205 235 287 287 227 202 207 210 207 234 228 255 180 207 209 196 179 147 180 194 196 206 211 216 227 229 234 237 235 239 237 244 239 234 231 218 209 222
267 274 278 265 250 226 230 227 251 317 305 247 235 221 213 211 192 185 204 248 217 166 173 205 213 215 224 223 219 218 231 235 231 225 232 239 231 241 249 237 223 223 235
293 287 273 246 251 241 232 227 217 220 252 279 261 233 220 211 215 208 191 125 195 187 206 217 226 224 225 227 226 230 233 236 228 230 239 245 242 239 256 252 232 226 235
273 265 249 250 255 242 234 229 224 221 226 230 225 228 226 225 230 212 168 182 206 216 221 230 237 237 235 232 229 225 222 223 228 226 232 239 241 241 246 247 249 252 242
274 280 285 268 260 250 242 242 238 233 232 224 228 222 176 150 197 217 216 224 226 228 229 234 239 247 244 240 236 230 230 230 228 230 232 231 233 234 240 244 244 250 247
285 281 283 284 265 254 248 244 254 246 239 236 231 216 193 202 214 217 221 228 232 234 233 232 232 233 236 237 238 237 237 236 233 230 231 233 230 236 243 244 244 245 250
282 262 263 266 266 258 261 250 249 249 239 239 241 227 217 210 220 226 227 232 234 237 240 230 230 231 227 225 226 232 239 244 243 241 240 237 236 238 239 242 247 247 243
301 284 273 271 274 276 269 259 248 254 250 241 232 217 216 226 232 233 237 236 241 249 255 248 240 243 251 250 245 237 234 240 238 234 236 243 245 243 241 244 246 247 244
295 286 280 276 274 270 270 273 264 258 257 248 241 232 229 232 241 246 244 246 246 253 258 254 250 247 249 258 259 253 251 248 245 244 238 238 246 252 255 255 252 248 245
289 285 278 277 275 272 271 274 274 271 264 251 243 247 245 242 247 254 258 259 256 253 257 261 263 256 252 255 261 261 253 249 247 246 247 244 242 247 250 256 256 255 253
289 286 282 281 276 271 269 272 275 277 271 259 248 246 248 251 250 252 255 255 257 261 261 264 262 263 261 258 256 257 256 252 249 246 246 249 240 243 245 251 254 254 253
Height
1513 1514 1515 1516 1517 1517 1518 1519 1519 1519 1520 1520 1521 1521 1522 1523 1523 1524 1525 1525 1525 1525 1526 1526 1527 1527 1528 1528 1528 1529 1530 1530 1530 1531 1532 1533 1533 1533 1533 1533 1533 1533 1533
1511 1512 1513 1514 1514 1515 1516 1516 1517 1518 1518 1519 1519 1519 1520 1521 1521 1522 1522 1523 1523 1524 1524 1524 1525 1525 1526 1526 1527 1527 1528 1528 1529 1529 1530 1531 1531 1532 1532 1532 1532 1532 1532
1509 1509 1510 1511 1512 1513 1514 1514 1515 1516 1516 1517 1517 1517 1518 1519 1519 1520 1520 1521 1521 1522 1522 1522 1523 1523 1523 1524 1524 1525 1526 1526 1527 1528 1528 1529 1529 1530 1530 1531 1531 1531 1531
1506 1507 1508 1509 1509 1510 1511 1512 1513 1513 1514 1515 1515 1515 1516 1516 1517 1518 1518 1519 1519 1520 1520 1520 1521 1521 1521 1521 1522 1523 1523 1524 1525 1525 1526 1526 1527 1528 1528 1528 1528 1529 1529
1504 1504 1505 1506 1507 1508 1508 1509 1510 1511 1512 1512 1513 1513 1514 1514 1515 1515 1516 1517 1517 1517 1518 1518 1518 1519 1519 1520 1520 1520 1521 1521 1522 1523 1523 1524 1524 1525 1525 1526 1526 1526 1527
1501 1502 1502 1503 1504 1505 1506 1506 1507 1508 1509 1510 1510 1511 1511 1511 1512 1513 1514 1514 1515 1515 1515 1516 1516 1516 1517 1517 1517 1518 1518 1519 1519 1520 1520 1521 1521 1522 1523 1523 1523 1524 1524
1499 1499 1500 1501 1501 1502 1503 1503 1504 1505 1506 1507 1507 1507 1508 1509 1510 1510 1511 1512 1512 1513 1513 1513 1513 1514 1514 1514 1514 1515 1515 1516 1517 1518 1518 1518 1519 1519 1520 1520 1521 1521 1521
1497 1497 1498 1498 1499 1499 1500 1501 1501 1502 1503 1504 1504 1505 1505 1506 1507 1508 1508 1509 1510 1510 1510 1510 1511 1511 1511 1511 1511 1512 1512 1513 1514 1515 1515 1515 1516 1517 1517 1518 1518 1518 1518
1495 1495 1496 1496 1497 1497 1498 1498 1499 1500 1500 1501 1501 1502 1502 1503 1504 1504 1505 1506 1506 1507 1507 1508 1508 1508 1508 1508 1508 1509 1509 1510 1511 1512 1512 1513 1513 1513 1514 1514 1514 1514 1514
1492 1493 1493 1494 1495 1495 1496 1496 1497 1497 1497 1498 1498 1499 1499 1500 1501 1501 1502 1503 1503 1504 1504 1504 1505 1505 1505 1505 1505 1505 1506 1507 1508 1508 1509 1509 1510 1510 1510 1511 1511 1511 1511
1490 1490 1491 1492 1492 1493 1493 1494 1494 1494 1495 1495 1495 1496 1497 1497 1498 1498 1499 1499 1500 1500 1500 1501 1501 1502 1502 1502 1502 1503 1503 1503 1504 1505 1505 1506 1506 1506 1507 1507 1507 1508 1507
1487 1487 1488 1489 1490 1490 1490 1490 1491 1491 1492 1492 1492 1493 1493 1494 1495 1495 1496 1496 1497 1497 1497 1498 1498 1499 1499 1499 1499 1500 1500 1500 1501 1501 1501 1502 1502 1503 1503 1504 1504 1504 1504
1485 1485 1486 1487 1487 1487 1487 1488 1488 1488 1488 1489 1489 1489 1490 1490 1491 1492 1492 1493 1493 1493 1494 1494 1495 1496 1496 1496 1496 1497 1497 1497 1497 1497 1497 1498 1499 1499 1499 1500 1500 1500 1500
1482 1483 1483 1484 1484 1484 1485 1485 1485 1485 1485 1485 1485 1486 1486 1487 1487 1487 1488 1489 1489 1490 1490 1491 1492 1492 1492 1493 1493 1493 1493 1494 1494 1494 1494 1495 1495 1495 1495 1495 1495 1495 1495
1480 1480 1481 1481 1481 1481 1481 1481 1481 1481 1482 1482 1482 1483 1483 1483 1484 1484 1484 1484 1485 1486 1486 1487 1487 1488 1488 1488 1489 1489 1490 1490 1490 1490 1490 1490 1491 1491 1491 1491 1491 1491 1491
1478 1478 1478 1478 1478 1477 1477 1478 1478 1479 1479 1479 1479 1480 1480 1480 1481 1481 1481 1481 1482 1482 1483 1482 1483 1484 1484 1485 1485 1485 1486 1486 1486 1486 1486 1486 1486 1486 1487 1487 1487 1487 1487
1475 1475 1475 1475 1474 1474 1474 1474 1474 1475 1476 1476 1476 1476 1476 1476 1477 1477 1477 1477 1478 1478 1478 1478 1479 1480 1480 1481 1481 1482 1482 1482 1482 1482 1482 1482 1482 1482 1482 1482 1483 1483 1483
1471 1472 1472 1471 1471 1471 1471 1471 1471 1471 1471 1471 1472 1472 1473 1473 1473 1473 1474 1474 1473 1473 1474 1474 1475 1476 1476 1477 1477 1477 1478 1478 1478 1478 1478 1478 1478 1479 1478 1478 1478 1478 1479
1468 1468 1468 1468 1467 1468 1468 1468 1468 1468 1468 1468 1468 1469 1469 1469 1469 1470 1470 1469 1469 1469 1469 1470 1471 1471 1472 1472 1473 1473 1473 1473 1474 1474 1474 1474 1474 1474 1474 1474 1474 1474 1474
1464 1464 1464 1464 1464 1464 1464 1464 1464 1465 1465 1465 1465 1465 1465 1465 1464 1465 1465 1465 1465 1465 1465 1466 1466 1467 1467 1468 1468 1468 1469 1469 1469 1469 1469 1469 1469 1469 1469 1469 1469 1469 1469
1461 1461 1461 1461 1461 1460 1460 1461 1461 1461 1461 1460 1461 1461 1461 1461 1460 1460 1460 1460 1460 1460 1461 1461 1462 1462 1463 1463 1463 1464 1464 1464 1464 1464 1464 1464 1464 1464 1464 1464 1464 1464 1464
1458 1458 1458 1457 1457 1457 1457 1457 1457 1456 1456 1457 1457 1457 1457 1457 1456 1456 1456 1456 1456 1456 1457 1457 1457 1458 1458 1458 1459 1459 1459 1459 1459 1459 1459 1459 1459 1459 1459 1459 1459 1459 1459
1455 1454 1454 1454 1453 1453 1453 1453 1453 1452 1452 1452 1452 1452 1452 1452 1452 1452 1452 1451 1452 1452 1452 1452 1452 1453 1453 1453 1454 1454 1453 1453 1454 1454 1454 1454 1453 1453 1453 1453 1453 1453 1453
1451 1451 1450 1450 1450 1449 1449 1448 1448 1448 1448 1448 1448 1448 1448 1448 1447 1447 1447 1447 1447 1447 1447 1447 1447 1447 1448 1448 1448 1448 1448 1448 1448 1448 1448 1448 1448 1447 1447 1447 1447 1447 1447
1447 1447 1447 1446 1446 1445 1445 1445 1444 1444 1444 1444 1444 1443 1443 1443 1443 1443 1443 1442 1442 1442 1442 1442 1442 1442 1442 1442 1442 1442 1442 1442 1442 1442 1442 1442 1441 1441 1441 1441 1441 1441 1441
1444 1443 1443 1442 1442 1441 1441 1440 1440 1440 1440 1439 1439 1439 1439 1439 1438 1438 1438 1437 1437 1437 1436 1436 1436 1436 1436 1436 1436 1436 1436 1436 1436 1436 1436 1435 1435 1435 1435 1435 1434 1434 1434